Powrót do katalogu

FENGYUN 1C DEB

AktywnySSO
NORAD 30809·DEBRIS·🇨🇳 China

Wystrzelony May 10, 1999 z Taiyuan Satellite Launch Center

Loading…

Następne Przeloty (najbliższe 24 godziny)

TLE

ŚwieżeSource: Space-Track

Epoka: Sep 14, 2026, 17:06 UTC

1 30809U 99025AUT 26257.71293937  .00002306  00000-0  87761-3 0  9991
2 30809  98.7860 354.4383 0050559  86.9588 273.7379 14.31187252 10270

Śledź FENGYUN 1C DEB w czasie rzeczywistym z AllMySat

Download on the App Store